| time (UTC) | temp C | wind direction | speed KPH | gust KPH | rain 1hr cm | rain 24hr cm | rain mn cm | humidity % | barometer mb |
| 20260504081520 | 7 | 236 | 0.0 | 0.0 | 0.00 | 0.00 | 0.00 | 48 | 999.3 |
| 20260504044546 | 10 | 270 | 0.0 | 0.0 | 0.00 | 0.00 | 0.00 | 37 | 1001.6 |
| 20260504043053 | 10 | 270 | 0.0 | 1.6 | 0.00 | 0.00 | 0.00 | 37 | 1001.8 |
| 20260504041546 | 11 | 270 | 0.0 | 1.6 | 0.00 | 0.00 | 0.00 | 35 | 1001.9 |
| 20260504040047 | 13 | 270 | 0.0 | 3.2 | 0.00 | 0.00 | 0.00 | 32 | 1002.1 |
| 20260504034552 | 13 | 270 | 0.0 | 3.2 | 0.00 | 0.00 | 0.00 | 30 | 1002.3 |
| 20260504033043 | 14 | 270 | 1.6 | 4.8 | 0.00 | 0.00 | 0.00 | 28 | 1002.5 |
| 20260504031544 | 14 | 268 | 6.4 | 8.0 | 0.00 | 0.00 | 0.00 | 28 | 1002.7 |
| 20260504030043 | 14 | 284 | 0.0 | 1.6 | 0.00 | 0.00 | 0.00 | 28 | 1002.6 |
| 20260504024548 | 15 | 279 | 1.6 | 8.0 | 0.00 | 0.00 | 0.00 | 26 | 1002.5 |
| 20260504023042 | 15 | 277 | 1.6 | 6.4 | 0.00 | 0.00 | 0.00 | 26 | 1002.4 |
| 20260504021542 | 16 | 269 | 3.2 | 9.7 | 0.00 | 0.00 | 0.00 | 25 | 1002.4 |
| 20260504020043 | 17 | 275 | 3.2 | 8.0 | 0.00 | 0.00 | 0.00 | 23 | 1002.3 |
| 20260504014541 | 17 | 265 | 9.7 | 14.5 | 0.00 | 0.00 | 0.00 | 21 | 1002.2 |
| 20260504013055 | 18 | 273 | 11.3 | 14.5 | 0.00 | 0.00 | 0.00 | 21 | 1002.1 |
| 20260504011539 | 19 | 277 | 9.7 | 16.1 | 0.00 | 0.00 | 0.00 | 18 | 1002.0 |
| 20260504010041 | 20 | 312 | 12.9 | 16.1 | 0.00 | 0.00 | 0.00 | 18 | 1001.9 |
| 20260504004537 | 21 | 269 | 9.7 | 16.1 | 0.00 | 0.00 | 0.00 | 18 | 1001.9 |
| 20260504003036 | 21 | 261 | 9.7 | 16.1 | 0.00 | 0.00 | 0.00 | 16 | 1001.8 |
| 20260504001540 | 22 | 289 | 9.7 | 20.9 | 0.00 | 0.00 | 0.00 | 15 | 1001.8 |
| 20260504000036 | 22 | 274 | 17.7 | 24.1 | 0.00 | 0.00 | 0.00 | 14 | 1001.8 |
| 20260503234635 | 23 | 331 | 6.4 | 20.9 | 0.00 | 0.00 | 0.00 | 12 | 1001.8 |
| 20260503233034 | 23 | 279 | 9.7 | 24.1 | 0.00 | 0.00 | 0.00 | 12 | 1001.8 |
| 20260503231534 | 23 | 29 | 14.5 | 30.6 | 0.00 | 0.00 | 0.00 | 11 | 1001.8 |
| 20260503230039 | 23 | 261 | 19.3 | 30.6 | 0.00 | 0.00 | 0.00 | 9 | 1001.8 |
| 20260503224534 | 23 | 355 | 14.5 | 24.1 | 0.00 | 0.00 | 0.00 | 9 | 1001.8 |
| 20260503223031 | 23 | 282 | 4.8 | 29.0 | 0.00 | 0.00 | 0.00 | 11 | 1001.7 |
| 20260503221532 | 23 | 271 | 17.7 | 29.0 | 0.00 | 0.00 | 0.00 | 10 | 1001.7 |
| 20260503220030 | 23 | 5 | 16.1 | 32.2 | 0.00 | 0.00 | 0.00 | 11 | 1001.6 |
| 20260503214537 | 23 | 273 | 14.5 | 30.6 | 0.00 | 0.00 | 0.00 | 12 | 1001.6 |
| 20260503213029 | 24 | 303 | 12.9 | 25.7 | 0.00 | 0.00 | 0.00 | 12 | 1001.6 |
| 20260503211528 | 23 | 331 | 20.9 | 32.2 | 0.00 | 0.00 | 0.00 | 12 | 1001.6 |
| 20260503210027 | 23 | 355 | 14.5 | 24.1 | 0.00 | 0.00 | 0.00 | 12 | 1001.8 |
| 20260503204525 | 23 | 315 | 12.9 | 30.6 | 0.00 | 0.00 | 0.00 | 14 | 1001.8 |
| 20260503203033 | 23 | 331 | 12.9 | 37.0 | 0.00 | 0.00 | 0.00 | 14 | 1002.0 |
| 20260503201524 | 23 | 355 | 16.1 | 29.0 | 0.00 | 0.00 | 0.00 | 14 | 1002.1 |
| 20260503200025 | 23 | 302 | 11.3 | 30.6 | 0.00 | 0.00 | 0.00 | 14 | 1002.1 |
| 20260503194520 | 23 | 327 | 17.7 | 33.8 | 0.00 | 0.00 | 0.00 | 15 | 1002.2 |
| 20260503193034 | 23 | 271 | 25.7 | 38.6 | 0.00 | 0.00 | 0.00 | 15 | 1002.1 |
| 20260503191538 | 23 | 271 | 12.9 | 29.0 | 0.00 | 0.00 | 0.00 | 16 | 1002.1 |
| 20260503190026 | 23 | 254 | 17.7 | 32.2 | 0.00 | 0.00 | 0.00 | 17 | 1002.1 |
| 20260503184516 | 23 | 248 | 20.9 | 38.6 | 0.00 | 0.00 | 0.00 | 16 | 1002.1 |
| 20260503183013 | 22 | 264 | 22.5 | 41.8 | 0.00 | 0.00 | 0.00 | 18 | 1002.3 |
| 20260503181511 | 22 | 360 | 9.7 | 29.0 | 0.00 | 0.00 | 0.00 | 19 | 1002.3 |
| 20260503180009 | 22 | 298 | 19.3 | 33.8 | 0.00 | 0.00 | 0.00 | 20 | 1002.4 |
| 20260503174504 | 21 | 252 | 17.7 | 35.4 | 0.00 | 0.00 | 0.00 | 23 | 1002.7 |
| 20260503173002 | 20 | 295 | 24.1 | 35.4 | 0.00 | 0.00 | 0.00 | 24 | 1002.9 |
| 20260503171559 | 20 | 246 | 20.9 | 35.4 | 0.00 | 0.00 | 0.00 | 28 | 1003.1 |
| 20260503170113 | 19 | 259 | 20.9 | 37.0 | 0.00 | 0.00 | 0.00 | 27 | 1003.2 |